Location: ????? ??????
(37.8317°N, 23.8750°E)
Time: 12:42:33
(UTC+00:00)

Iridium 4 Rocket - Pass Details

Date: 20 January 2021
Orbit: 583 x 906 km, 86.9° (Epoch: 03 March)

Event Time Altitude Azimuth Distance (km) Brightness Sun altitude
Rises 17:01:22 0° 5° (N) 3,471 6.7 -17.0°
Reaches altitude 10° 17:04:00 10° 12° (NNE) 2,493 5.9 -17.5°
Maximum altitude 17:09:21 43° 83° (E) 1,122 3.9 -18.5°
Drops below altitude 10° 17:14:15 10° 155° (SSE) 2,289 5.8 -19.5°
Sets 17:16:34 0° 162° (SSE) 3,158 6.6 -19.9°
